RADUGA 32 1 23448U 94087A 10246.98189698 -.00000062 00000-0 10000-3 0 3021 2 23448 011.1773 047.3128 0004613 110.4776 249.6787 01.00265391 75134 RADUGA 1-4 1 25642U 99010A 10248.11503773 .00000138 00000-0 00000+0 0 3951 2 25642 009.9268 062.6837 0002232 119.3959 240.7748 01.00299177 42186 RADUGA 1-5 1 26477U 00049A 10248.89290311 -.00000220 00000-0 10000-3 0 9211 2 26477 007.5535 061.5530 0001203 019.3090 314.3794 01.00212159 36697 RADUGA 1-6 1 26936U 01045A 10246.09634892 -.00000048 +00000-0 +10000-3 0 00549 2 26936 006.8409 066.3842 0017105 044.0370 316.2835 00.97743890032220 RADUGA 1-7 1 28194U 04010A 10248.66331231 -.00000358 00000-0 10000-3 0 2230 2 28194 004.9098 076.9923 0001042 134.6180 139.7521 01.00262279 23600 RADUGA 1M-1 1 32373U 07058A 10248.98794338 -.00000055 00000-0 10000-3 0 7931 2 32373 000.0157 215.6649 0002515 292.0803 262.8882 01.00271986 10947